TimeEDT,TemperatureF,Dew PointF,Humidity,Sea Level PressureIn,VisibilityMPH,Wind Direction,Wind SpeedMPH,Gust SpeedMPH,PrecipitationIn,Events,Conditions,WindDirDegrees,DateUTC
12:53 AM,46.9,46.0,97,30.26,10.0,ENE,4.6,-,N/A,,Clear,70,2013-10-15 04:53:00
1:53 AM,46.0,45.0,96,30.25,10.0,ENE,3.5,-,N/A,,Clear,60,2013-10-15 05:53:00
2:53 AM,46.9,46.0,97,30.25,10.0,NE,4.6,-,N/A,,Clear,50,2013-10-15 06:53:00
3:53 AM,48.0,46.9,96,30.24,10.0,NE,4.6,-,N/A,,Clear,40,2013-10-15 07:53:00
4:53 AM,48.0,46.9,96,30.25,10.0,NE,4.6,-,N/A,,Clear,50,2013-10-15 08:53:00
5:53 AM,48.0,46.0,93,30.25,9.0,NE,5.8,-,N/A,,Clear,50,2013-10-15 09:53:00
6:53 AM,48.0,46.9,96,30.25,10.0,ENE,4.6,-,0.01,,Clear,60,2013-10-15 10:53:00
7:53 AM,53.1,52.0,96,30.24,10.0,NE,5.8,-,N/A,,Clear,50,2013-10-15 11:53:00
8:53 AM,57.0,53.1,87,30.25,10.0,ENE,8.1,-,N/A,,Clear,60,2013-10-15 12:53:00
9:53 AM,61.0,45.0,56,30.25,10.0,ENE,9.2,-,N/A,,Clear,60,2013-10-15 13:53:00
10:53 AM,62.1,42.1,48,30.25,10.0,East,10.4,-,N/A,,Clear,80,2013-10-15 14:53:00
11:53 AM,63.0,44.1,50,30.24,10.0,ENE,9.2,-,N/A,,Clear,70,2013-10-15 15:53:00
12:53 PM,63.0,41.0,45,30.22,10.0,ENE,10.4,-,N/A,,Clear,70,2013-10-15 16:53:00
1:53 PM,62.1,46.0,56,30.21,10.0,ENE,13.8,-,N/A,,Clear,60,2013-10-15 17:53:00
2:53 PM,62.1,48.9,62,30.20,10.0,ENE,12.7,-,N/A,,Clear,60,2013-10-15 18:53:00
3:53 PM,61.0,50.0,67,30.19,10.0,ENE,10.4,-,N/A,,Clear,70,2013-10-15 19:53:00
4:53 PM,59.0,50.0,72,30.19,10.0,ENE,10.4,-,N/A,,Clear,60,2013-10-15 20:53:00
5:53 PM,55.9,51.1,84,30.20,10.0,NE,6.9,-,N/A,,Clear,50,2013-10-15 21:53:00
6:53 PM,54.0,50.0,86,30.20,10.0,ENE,8.1,-,N/A,,Clear,60,2013-10-15 22:53:00
7:53 PM,53.1,50.0,89,30.19,10.0,ENE,8.1,-,N/A,,Clear,60,2013-10-15 23:53:00
8:53 PM,53.1,50.0,89,30.19,10.0,ENE,6.9,-,N/A,,Clear,60,2013-10-16 00:53:00
9:53 PM,53.1,50.0,89,30.19,10.0,ENE,6.9,-,N/A,,Clear,60,2013-10-16 01:53:00
10:53 PM,53.1,50.0,89,30.17,10.0,ENE,6.9,-,N/A,,Clear,70,2013-10-16 02:53:00
11:53 PM,53.1,50.0,89,30.16,10.0,NE,6.9,-,N/A,,Clear,50,2013-10-16 03:53:00